Flag for U.S.A. Weather past 2 weeks in Glendale, Arizona, U.S.A.

Now
60 °F

Clear.


Feels Like: 60 °F
Forecast: 45 / 75 °F
Wind: 10 mph from Northeast

Location: Phoenix-Deer Valley Municipal Airport

Current Time: Jan 24, 2015 at 9:59:37 PM

Latest Report: Jan 24, 2015 at 8:53 PM


Visibility: 10 mi

Pressure: 30.03 "Hg

Humidity: 19%

Dew point: 18 °F

Location of GlendaleLocation

Historic Weather in Glendale — Graph

°F

Glendale temperature yesterday

Maximum temperature yesterday: 59 °F (at 2:53 PM)
Minimum temperature yesterday: 40 °F (at 3:53 AM)
Average temperature yesterday: 50 °F

Past Weeks' High & Low Weather Summary

 TemperatureHumidityPressure
High75 °F (Jan 24, 2:53 PM)97% (Jan 12, 5:53 AM)30.31 "Hg (Jan 12, 5:53 AM)
Low40 °F (Jan 23, 3:53 AM)5% (Jan 24, 2:53 PM)29.78 "Hg (Jan 21, 4:53 AM)
Average57 °F47%30.08 "Hg
* Reported Jan 9 7:53 PM — Jan 24 7:53 PM, Glendale, Weather by CustomWeather, © 2014

Note: Actual official high and low records may vary slightly from our data, if they occured in-between our weather recording intervals... More about our weather records

Advertising

Glendale weather history for previous 24 hours

 ConditionsComfort  
Time TempWeatherWind HumidityBarometerVisibility
7:53 PM
Jan 24
60 °FClear.No wind15%30.01 "Hg10 mi
6:53 PM61 °FClear.6 mph17%30.01 "Hg10 mi
5:53 PM68 °FClear.3 mph10%29.98 "Hg10 mi
4:53 PM74 °FSunny.5 mph6%29.98 "Hg10 mi
3:53 PM74 °FSunny.5 mph7%29.98 "Hg10 mi
2:53 PM75 °FSunny.13 mph5%29.99 "Hg10 mi
1:53 PM74 °FSunny.12 mph7%30.02 "Hg10 mi
12:53 PM73 °FSunny.9 mph7%30.06 "Hg10 mi
11:53 AM71 °FSunny.14 mph8%30.09 "Hg10 mi
10:53 AM68 °FSunny.14 mph10%30.10 "Hg10 mi
9:53 AM62 °FSunny.No wind16%30.13 "Hg10 mi
8:53 AM55 °FSunny.7 mph20%30.13 "Hg10 mi
7:53 AM48 °FSunny.8 mph25%30.12 "Hg10 mi
6:53 AM43 °FClear.No wind38%30.10 "Hg10 mi
5:53 AM46 °FClear.No wind31%30.09 "Hg10 mi
4:53 AM50 °FClear.3 mph25%30.09 "Hg10 mi
3:53 AM52 °FClear.7 mph23%30.09 "Hg10 mi
2:53 AM47 °FClear.No wind33%30.11 "Hg10 mi
1:53 AM48 °FClear.No wind33%30.11 "Hg10 mi
12:53 AM49 °FClear.7 mph32%30.11 "Hg10 mi
11:53 PM
Jan 23
49 °FClear.6 mph33%30.13 "Hg10 mi
10:53 PM49 °FClear.9 mph35%30.14 "Hg10 mi
9:53 PM48 °FClear.5 mph36%30.14 "Hg10 mi
Weather by CustomWeather, © 2014

See weather overviewHow to use our weather pages